1486000800.78,14008,7.19,72948.5,-8.23,-9.11,-9.11,0,*54
1486000802.04,14009,7.19,72936.3,-8.21,-9.11,-9.11,0,*57
1486000803.32,14010,7.19,72928.8,-8.23,-9.11,-9.11,0,*5D
1486000804.6,14011,7.19,72916.5,-8.23,-9.11,-9.11,0,*5C
1486000805.86,14012,7.19,72936.8,-8.21,-9.11,-9.11,0,*5D
1486000807.14,14013,7.19,72928.5,-8.23,-9.11,-9.11,0,*5E
1486000808.39,14014,7.25,72966.0,-8.21,-9.11,-9.11,0,*5B
1486000809.59,14015,7.19,72964.3,-8.21,-9.19,-9.19,0,*5A
1486000810.85,14016,7.25,72974.3,-8.21,-9.11,-9.11,0,*59
1486000812.08,14017,7.19,72924.5,-8.21,-9.19,-9.11,0,*50
1486000813.33,14018,7.19,72894.8,-8.23,-9.19,-9.11,0,*5D
1486000814.56,14019,7.19,72880.0,-8.23,-9.19,-9.19,0,*54
1486000815.78,14020,7.19,72854.3,-8.23,-9.31,-9.31,0,*5E
1486000816.98,14021,7.19,72866.3,-8.21,-9.19,-9.23,0,*54
1486000818.17,14022,7.19,72884.8,-8.21,-9.23,-9.19,0,*57
1486000819.38,14023,7.25,72838.0,-8.21,-9.23,-9.19,0,*56
1486000820.62,14024,7.19,72818.8,-8.23,-9.45,-9.31,0,*59
1486000821.88,14025,7.19,72818.0,-8.21,-9.37,-9.37,0,*59
1486000823.07,14026,7.19,72814.3,-8.21,-9.23,-9.19,0,*53
1486000824.33,14027,7.19,72828.8,-8.21,-9.11,-9.11,0,*5B
1486000825.59,14028,7.19,72862.5,-8.21,-9.11,-9.11,0,*54
1486000826.85,14029,7.19,72884.0,-8.21,-9.11,-9.11,0,*55
1486000828.11,14030,7.19,72910.8,-8.21,-9.11,-9.11,0,*5D
1486000829.36,14031,7.19,72920.8,-8.21,-9.11,-9.11,0,*5C
1486000830.6,14032,7.19,72944.5,-8.23,-9.01,-9.05,0,*59
1486000831.8,14033,7.19,72950.5,-8.21,-9.01,-9.05,0,*5A
1486000833.01,14034,7.19,72954.0,-8.21,-9.01,-9.05,0,*5D
1486000834.22,14035,7.19,72948.8,-8.21,-9.05,-9.05,0,*58
1486000835.45,14036,7.19,72946.5,-8.19,-9.01,-9.01,0,*50
1486000836.73,14037,7.19,72926.5,-8.19,-9.15,-9.15,0,*51
1486000837.95,14038,7.19,72928.8,-8.19,-9.19,-9.19,0,*5E
1486000839.21,14039,7.19,72934.0,-8.21,-9.37,-9.37,0,*54
1486000840.44,14040,7.19,72932.3,-8.21,-9.31,-9.37,0,*5C
1486000841.64,14041,7.19,72934.0,-8.21,-9.19,-9.19,0,*5B
1486000842.83,14042,7.19,72930.3,-8.21,-9.31,-9.31,0,*58
1486000844.09,14043,7.19,72920.0,-8.21,-9.45,-9.45,0,*59
1486000845.33,14044,7.19,72926.5,-8.21,-9.49,-9.57,0,*51
1486000846.58,14045,7.19,72932.8,-8.21,-9.61,-9.61,0,*5F
1486000847.85,14046,7.19,72958.0,-8.23,-9.49,-9.45,0,*52
1486000849.05,14047,7.19,72928.5,-8.21,-9.31,-9.31,0,*5D
1486000850.25,14048,7.19,72922.5,-8.21,-9.19,-9.23,0,*5B
1486000851.5,14049,7.19,72922.8,-8.21,-9.45,-9.45,0,*53
1486000852.76,14050,7.19,72920.0,-8.21,-9.37,-9.37,0,*5B
1486000853.96,14051,7.19,72912.8,-8.21,-9.23,-9.23,0,*5A
1486000855.16,14052,7.19,72928.3,-8.21,-9.23,-9.23,0,*59
1486000856.35,14053,7.19,72946.5,-8.21,-9.31,-9.23,0,*5B
1486000857.58,14054,7.19,72926.5,-8.23,-9.19,-9.23,0,*54
1486000858.78,14055,7.19,72890.8,-8.21,-9.23,-9.23,0,*5E
1486000860.04,14056,7.19,72882.8,-8.21,-9.11,-9.11,0,*5D
1486000861.29,14057,7.19,72900.5,-8.21,-9.11,-9.11,0,*5C
1486000862.55,14058,7.19,72946.5,-8.21,-9.11,-9.11,0,*53
1486000863.81,14059,7.19,72926.5,-8.21,-9.11,-9.11,0,*52
1486000865.07,14060,7.19,72926.0,-8.21,-9.11,-9.11,0,*58
1486000866.27,14061,7.19,72906.3,-8.21,-9.19,-9.19,0,*59
1486000867.49,14062,7.19,72908.5,-8.21,-9.11,-9.31,0,*58
1486000868.72,14063,7.19,72912.5,-8.19,-9.19,-9.27,0,*5D
1486000869.94,14064,7.19,72910.0,-8.19,-9.19,-9.27,0,*5A
1486000871.16,14065,7.19,72912.0,-8.19,-9.19,-9.19,0,*56
1486000872.42,14066,7.19,72926.3,-8.17,-9.15,-9.15,0,*5B
1486000873.66,14067,7.19,72918.5,-8.19,-9.19,-9.15,0,*58
1486000874.92,14068,7.19,72928.0,-8.19,-9.15,-9.05,0,*5A
1486000876.18,14069,7.19,72916.3,-8.19,-9.15,-9.05,0,*5B
1486000877.43,14070,7.19,72934.8,-8.19,-9.15,-9.19,0,*5E
1486000878.63,14071,7.19,72946.5,-8.17,-9.19,-9.27,0,*50
1486000879.88,14072,7.19,72950.5,-8.19,-9.31,-9.41,0,*57
1486000881.15,14073,7.19,72940.5,-8.19,-9.53,-9.45,0,*56
1486000882.42,14074,7.19,72948.5,-8.19,-9.53,-9.53,0,*56
1486000883.69,14075,7.19,72952.3,-8.19,-9.53,-9.53,0,*57
1486000884.96,14076,7.19,72964.0,-8.19,-9.53,-9.45,0,*53
1486000886.2,14077,7.19,72962.8,-8.19,-9.57,-9.67,0,*56
1486000887.41,14078,7.19,72946.3,-8.21,-9.71,-9.71,0,*51
1486000888.64,14079,7.19,72942.8,-8.19,-9.71,-9.79,0,*53
1486000889.86,14080,7.19,72954.3,-8.19,-9.79,-9.79,0,*5D
1486000891.08,14081,7.19,72958.3,-8.17,-9.83,-9.79,0,*57
1486000892.3,14082,7.19,72966.5,-8.19,-9.97,-9.93,0,*5B
1486000893.57,14083,7.19,72978.0,-8.19,-9.83,-9.83,0,*5E
1486000894.79,14084,7.19,72950.5,-8.19,-10.01,-9.93,0,*6A
1486000896.03,14085,7.19,72950.8,-8.19,-10.15,-10.01,0,*5D
1486000897.27,14086,7.19,72940.5,-8.19,-10.09,-10.01,0,*53
1486000898.5,14087,7.19,72962.0,-8.19,-10.27,-10.09,0,*56
1486000899.71,14088,7.19,72962.3,-8.17,-10.23,-10.09,0,*53
1486000900.93,14089,7.19,72966.0,-8.21,-10.27,-10.01,0,*5B
1486000902.16,14090,7.19,72968.0,-8.19,-10.15,-9.93,0,*6A
1486000903.39,14091,7.19,72970.0,-8.19,-10.23,-9.93,0,*6E
1486000904.62,14092,7.19,72970.3,-8.19,-10.23,-9.93,0,*6D
1486000905.87,14093,7.19,72958.0,-8.19,-10.23,-9.83,0,*6D
1486000907.12,14094,7.19,72952.5,-8.19,-10.09,-9.83,0,*62
1486000908.34,14095,7.19,72948.8,-8.17,-10.09,-9.83,0,*6D
1486000909.56,14096,7.19,72966.3,-8.19,-9.93,-9.71,0,*56
1486000910.78,14097,7.19,72976.3,-8.19,-9.71,-9.67,0,*5C
1486000912.03,14098,7.19,72986.0,-8.21,-9.61,-9.57,0,*5A
1486000913.27,14099,7.19,72976.0,-8.21,-9.83,-9.83,0,*5E
1486000914.54,14100,7.19,72976.0,-8.19,-9.83,-9.83,0,*54
1486000915.81,14101,7.19,72930.0,-8.19,-9.83,-9.83,0,*55
1486000917.05,14102,7.19,72954.0,-8.19,-9.93,-9.83,0,*57
1486000918.31,14103,7.19,72944.8,-8.19,-9.83,-9.83,0,*57
1486000919.58,14104,7.19,72914.8,-8.19,-9.83,-9.83,0,*50
1486000920.85,14105,7.19,72924.3,-8.19,-9.83,-9.83,0,*51
1486000922.04,14106,7.19,72926.5,-8.21,-9.89,-9.89,0,*59
1486000923.26,14107,7.19,72926.3,-8.21,-9.83,-9.89,0,*52
1486000924.45,14108,7.19,72930.8,-8.21,-9.97,-9.97,0,*57
1486000925.67,14109,7.19,72936.5,-8.23,-9.89,-9.89,0,*54
1486000926.86,14110,7.19,72924.8,-8.21,-9.89,-9.89,0,*5E
1486000928.05,14111,7.19,72946.3,-8.21,-9.89,-9.89,0,*5F
1486000929.29,14112,7.19,72948.8,-8.23,-9.89,-9.83,0,*54
1486000930.51,14113,7.19,72956.5,-8.21,-9.89,-9.83,0,*57
1486000931.73,14114,7.19,72964.0,-8.21,-9.89,-9.83,0,*50
1486000932.95,14115,7.19,72948.0,-8.21,-9.83,-9.71,0,*56
1486000934.15,14116,7.19,72938.0,-8.21,-9.75,-9.75,0,*58
1486000935.38,14117,7.19,72926.5,-8.23,-9.71,-9.71,0,*5B
1486000936.65,14118,7.19,72904.0,-8.23,-9.61,-9.61,0,*54
1486000937.87,14119,7.19,72904.3,-8.21,-9.61,-9.71,0,*56
1486000939.08,14120,7.19,72916.8,-8.21,-9.71,-9.71,0,*5D
1486000940.31,14121,7.19,72932.8,-8.21,-9.71,-9.61,0,*5D
1486000941.53,14122,7.19,72940.5,-8.21,-9.61,-9.71,0,*5E
1486000942.76,14123,7.19,72914.5,-8.23,-9.71,-9.71,0,*5C
1486000943.99,14124,7.19,72930.3,-8.21,-9.71,-9.61,0,*58
1486000945.21,14125,7.19,72916.3,-8.21,-9.61,-9.71,0,*59
1486000946.44,14126,7.19,72900.5,-8.21,-9.71,-9.61,0,*5A
1486000947.65,14127,7.19,72892.8,-8.21,-9.71,-9.71,0,*5A
1486000948.92,14128,7.19,72902.5,-8.19,-9.53,-9.45,0,*59
1486000950.19,14129,7.19,72908.8,-8.19,-9.57,-9.53,0,*5B
1486000951.44,14130,7.19,72936.3,-8.21,-9.49,-9.49,0,*5C
1486000952.69,14131,7.19,72922.3,-8.21,-9.49,-9.49,0,*5D
1486000953.94,14132,7.19,72922.5,-8.21,-9.49,-9.49,0,*5E
1486000955.19,14133,7.19,72910.5,-8.21,-9.45,-9.49,0,*53
1486000956.4,14134,7.19,72902.0,-8.19,-9.31,-9.31,0,*53
1486000957.68,14135,7.19,72918.5,-8.19,-9.41,-9.41,0,*52
1486000958.9,14136,7.19,72904.3,-8.19,-9.31,-9.27,0,*56
1486000960.13,14137,7.19,72890.0,-8.19,-9.27,-9.27,0,*50
1486000961.35,14138,7.19,72912.5,-8.19,-9.27,-9.27,0,*5F
1486000962.57,14139,7.19,72924.8,-8.19,-9.31,-9.27,0,*59
1486000963.8,14140,7.19,72914.5,-8.19,-9.27,-9.27,0,*50
1486000965.05,14141,7.19,72936.5,-8.19,-9.27,-9.15,0,*50
1486000966.3,14142,7.19,72952.5,-8.19,-9.15,-9.27,0,*53
1486000967.53,14143,7.19,72952.8,-8.19,-9.19,-9.27,0,*5E
1486000968.75,14144,7.19,72958.8,-8.19,-9.19,-9.27,0,*59
1486000970.03,14145,7.19,72968.3,-8.19,-9.15,-9.15,0,*55
1486000971.28,14146,7.19,72968.0,-8.19,-9.19,-9.15,0,*5A
1486000972.5,14147,7.19,72982.3,-8.19,-9.05,-9.19,0,*5A
1486000973.75,14148,7.19,72994.0,-8.19,-9.15,-9.19,0,*54
1486000974.98,14149,7.19,72984.0,-8.17,-9.15,-9.19,0,*5B
1486000976.26,14150,7.19,72990.0,-8.19,-9.15,-9.15,0,*51
1486000977.51,14151,7.19,72992.8,-8.19,-9.05,-9.15,0,*51
1486000978.76,14152,7.19,72976.5,-8.19,-9.05,-9.15,0,*52
1486000979.98,14153,7.19,72976.0,-8.19,-9.19,-9.19,0,*52
1486000981.23,14154,7.19,72982.8,-8.19,-9.15,-9.19,0,*59
1486000982.46,14155,7.19,72968.0,-8.17,-9.15,-9.19,0,*56
1486000983.69,14156,7.19,72966.8,-8.17,-9.15,-9.19,0,*55
1486000984.92,14157,7.19,72962.5,-8.17,-9.15,-9.27,0,*59
1486000986.15,14158,7.19,72946.0,-8.17,-9.05,-9.15,0,*56
1486000987.4,14159,7.19,72948.5,-8.19,-9.05,-9.15,0,*59
1486000988.65,14160,7.19,72924.5,-8.19,-9.19,-9.15,0,*5E
1486000989.84,14161,7.19,72924.3,-8.17,-9.19,-9.19,0,*5D
1486000991.04,14162,7.19,72922.0,-8.17,-9.19,-9.19,0,*5E
1486000992.24,14163,7.19,72922.0,-8.17,-9.19,-9.19,0,*5F
1486000993.44,14164,7.19,72928.8,-8.17,-9.27,-9.19,0,*55
1486000994.66,14165,7.19,72932.8,-8.19,-9.27,-9.27,0,*57
1486000995.86,14166,7.19,72908.0,-8.17,-9.31,-9.27,0,*5D
1486000997.06,14167,7.19,72912.3,-8.17,-9.31,-9.27,0,*5C
1486000998.26,14168,7.19,72914.5,-8.17,-9.31,-9.27,0,*53
1486000999.49,14169,7.19,72900.5,-8.15,-9.23,-9.23,0,*57
1486001000.68,14170,7.19,72898.0,-8.17,-9.31,-9.31,0,*5D
1486001001.9,14171,7.19,72892.8,-8.19,-9.31,-9.31,0,*52
1486001003.15,14172,7.19,72890.8,-8.17,-9.41,-9.41,0,*5F
1486001004.34,14173,7.19,72890.8,-8.17,-9.31,-9.31,0,*5E
1486001005.59,14174,7.19,72888.3,-8.17,-9.41,-9.41,0,*59
1486001006.84,14175,7.19,72892.5,-8.17,-9.41,-9.41,0,*58
1486001008.07,14176,7.19,72882.3,-8.17,-9.31,-9.41,0,*5C
1486001009.29,14177,7.19,72890.3,-8.17,-9.41,-9.31,0,*5D
1486001010.51,14178,7.19,72882.3,-8.17,-9.41,-9.31,0,*52
1486001011.7,14179,7.19,72886.0,-8.17,-9.31,-9.31,0,*54
1486001012.92,14180,7.19,72882.8,-8.19,-9.31,-9.31,0,*5C
1486001014.14,14181,7.19,72884.8,-8.17,-9.41,-9.31,0,*54
1486001015.39,14182,7.19,72892.5,-8.17,-9.41,-9.45,0,*54
1486001016.65,14183,7.19,72912.0,-8.17,-9.41,-9.45,0,*55
1486001017.92,14184,7.19,72900.5,-8.19,-9.45,-9.53,0,*5F
1486001019.17,14185,7.19,72914.3,-8.17,-9.45,-9.53,0,*50
1486001020.45,14186,7.19,72914.5,-8.19,-9.45,-9.53,0,*5D
1486001021.69,14187,7.19,72928.8,-8.19,-9.67,-9.57,0,*58
1486001022.95,14188,7.19,72938.3,-8.19,-9.57,-9.57,0,*54
1486001024.17,14189,7.19,72944.0,-8.19,-9.31,-9.31,0,*55
1486001025.39,14190,7.19,72952.0,-8.19,-9.27,-9.27,0,*5D
1486001026.62,14191,7.19,72944.0,-8.19,-9.27,-9.27,0,*5C
1486001027.84,14192,7.19,72946.0,-8.19,-9.27,-9.31,0,*58
1486001029.06,14193,7.19,72944.0,-8.19,-9.19,-9.27,0,*53
1486001030.28,14194,7.19,72940.5,-8.19,-9.27,-9.19,0,*54
1486001031.5,14195,7.19,72942.3,-8.19,-9.19,-9.19,0,*58
1486001032.73,14196,7.19,72940.0,-8.19,-9.19,-9.27,0,*56
1486001033.98,14197,7.19,72942.8,-8.19,-9.15,-9.27,0,*5B
1486001035.21,14198,7.19,72940.5,-8.19,-9.19,-9.19,0,*55
1486001036.46,14199,7.19,72948.8,-8.19,-9.15,-9.19,0,*58
1486001037.74,14200,7.19,72954.0,-8.19,-9.15,-9.15,0,*57
1486001038.97,14201,7.19,72966.8,-8.17,-9.15,-9.19,0,*54
1486001040.19,14202,7.19,72952.5,-8.17,-9.19,-9.15,0,*57
1486001041.39,14203,7.19,72942.3,-8.17,-9.27,-9.19,0,*57
1486001042.59,14204,7.19,72942.8,-8.17,-9.27,-9.19,0,*50
1486001043.86,14205,7.19,72938.0,-8.19,-9.15,-9.15,0,*52
1486001045.12,14206,7.19,72938.0,-8.17,-9.15,-9.15,0,*5F
1486001046.34,14207,7.19,72938.0,-8.17,-9.05,-9.15,0,*5F
1486001047.6,14208,7.19,72934.3,-8.17,-9.15,-9.15,0,*51
1486001048.83,14209,7.19,72918.8,-8.17,-9.15,-9.19,0,*5C
1486001050.05,14210,7.19,72930.8,-8.19,-9.27,-9.19,0,*5B
1486001051.25,14211,7.19,72946.5,-8.17,-9.19,-9.27,0,*54
1486001052.47,14212,7.19,72930.8,-8.19,-9.19,-9.19,0,*54
1486001053.69,14213,7.19,72928.3,-8.19,-9.27,-9.27,0,*55
1486001054.92,14214,7.19,72932.0,-8.19,-9.19,-9.27,0,*5F
1486001056.14,14215,7.19,72940.0,-8.19,-9.19,-9.19,0,*53
1486001057.37,14216,7.19,72926.8,-8.17,-9.15,-9.05,0,*5F
1486001058.65,14217,7.19,72924.0,-8.19,-9.15,-9.15,0,*51
1486001059.93,14218,7.19,72934.8,-8.19,-9.15,-9.15,0,*5E
1486001061.13,14219,7.19,72936.5,-8.17,-9.19,-9.27,0,*5C
1486001062.38,14220,7.19,72940.8,-8.19,-9.19,-9.15,0,*59
1486001063.6,14221,7.19,72940.0,-8.17,-9.05,-9.15,0,*5B
1486001064.8,14222,7.19,72942.8,-8.17,-9.05,-9.05,0,*59
1486001066.01,14223,7.19,72942.0,-8.17,-9.05,-9.05,0,*58
1486001067.24,14224,7.19,72940.0,-8.17,-9.15,-9.05,0,*5E
1486001068.46,14225,7.19,72942.8,-8.17,-9.05,-9.15,0,*5F
1486001069.67,14226,7.19,72944.0,-8.17,-9.05,-9.05,0,*5D
1486001070.89,14227,7.19,72956.8,-8.17,-9.05,-9.15,0,*5D
1486001072.12,14228,7.19,72956.0,-8.17,-9.15,-9.05,0,*52
1486001073.38,14229,7.19,72948.3,-8.17,-9.15,-9.15,0,*52
1486001074.6,14230,7.19,72938.0,-8.17,-9.19,-9.15,0,*56
1486001075.85,14231,7.19,72944.3,-8.17,-9.15,-9.15,0,*5B
1486001077.08,14232,7.19,72958.3,-8.17,-9.19,-9.15,0,*54
1486001078.34,14233,7.19,72936.3,-8.15,-9.11,-9.01,0,*5A
1486001079.56,14234,7.19,72920.3,-8.17,-9.05,-9.15,0,*5F
1486001080.8,14235,7.19,72942.8,-8.17,-9.15,-9.05,0,*5E
1486001082.0,14236,7.19,72948.8,-8.17,-9.05,-9.05,0,*5C
1486001083.2,14237,7.19,72966.8,-8.17,-9.05,-9.05,0,*5D
1486001084.4,14238,7.13,72972.5,-8.17,-9.05,-9.05,0,*52
1486001085.6,14239,7.19,72978.5,-8.17,-8.97,-9.05,0,*59
1486001086.83,14240,7.19,72958.5,-8.17,-9.01,-9.15,0,*58
1486001088.03,14241,7.19,72964.8,-8.17,-9.01,-9.05,0,*58
1486001089.26,14242,7.19,72934.0,-8.17,-9.05,-9.15,0,*5E
1486001090.49,14243,7.19,72952.0,-8.17,-9.15,-9.19,0,*52
1486001091.72,14244,7.19,72950.0,-8.17,-9.15,-9.19,0,*55
1486001092.95,14245,7.19,72946.3,-8.17,-9.15,-9.19,0,*54
1486001094.15,14246,7.19,72962.3,-8.17,-9.05,-9.19,0,*56
1486001095.38,14247,7.19,72944.5,-8.17,-9.15,-9.19,0,*56
1486001096.62,14248,7.19,72952.8,-8.15,-9.01,-9.01,0,*57
1486001097.85,14249,7.19,72944.0,-8.15,-9.01,-9.01,0,*56
1486001099.09,14250,7.19,72970.5,-8.15,-9.01,-9.01,0,*5E
1486001100.32,14251,7.19,72968.5,-8.13,-9.01,-9.11,0,*58
1486001101.56,14252,7.19,72972.3,-8.15,-9.01,-9.01,0,*5C
1486001102.8,14253,7.19,72970.0,-8.15,-9.01,-9.01,0,*5D
1486001104.04,14254,7.19,72980.5,-8.15,-9.01,-9.01,0,*5A
1486001105.33,14255,7.19,72980.5,-8.15,-9.11,-9.11,0,*5B
1486001106.56,14256,7.19,72978.0,-8.13,-9.01,-9.11,0,*5F
1486001107.84,14257,7.19,72972.3,-8.15,-9.11,-9.15,0,*5D
1486001109.12,14258,7.19,72964.5,-8.15,-9.11,-9.15,0,*52
1486001110.41,14259,7.19,72972.3,-8.15,-9.11,-9.11,0,*57
1486001111.69,14260,7.19,72952.3,-8.15,-9.11,-9.11,0,*5D
1486001112.96,14261,7.19,72968.8,-8.15,-9.01,-9.11,0,*5D
1486001114.19,14262,7.19,72972.8,-8.15,-9.01,-9.01,0,*5F
1486001115.45,14263,7.19,72972.5,-8.13,-9.11,-9.11,0,*58
1486001116.69,14264,7.19,72970.0,-8.15,-9.01,-9.01,0,*59
1486001117.98,14265,7.13,72954.5,-8.15,-9.11,-9.11,0,*58
1486001119.21,14266,7.19,72936.3,-8.13,-9.15,-9.23,0,*58
1486001120.49,14267,7.19,72968.5,-8.15,-9.15,-9.15,0,*5A
1486001121.74,14268,7.19,72978.3,-8.13,-9.11,-9.15,0,*57
1486001123.0,14269,7.13,72964.8,-8.13,-9.15,-9.15,0,*52
1486001124.23,14270,7.19,72972.8,-8.15,-9.23,-9.27,0,*58
1486001125.45,14271,7.19,72940.3,-8.13,-9.37,-9.27,0,*5A
1486001126.68,14272,7.19,72954.3,-8.13,-9.49,-9.27,0,*50
1486001127.88,14273,7.19,72978.3,-8.13,-9.27,-9.27,0,*59
1486001129.1,14274,7.19,72990.0,-8.13,-9.23,-9.15,0,*5B
1486001130.3,14275,7.19,72966.0,-8.13,-9.23,-9.23,0,*5F
1486001131.58,14276,7.19,72960.8,-8.15,-9.15,-9.11,0,*5E
1486001132.82,14277,7.19,72974.5,-8.13,-9.15,-9.01,0,*58
1486001134.08,14278,7.19,72988.5,-8.13,-9.11,-9.11,0,*52
1486001135.33,14279,7.13,72982.0,-8.13,-9.11,-9.11,0,*53
1486001136.59,14280,7.19,72982.3,-8.13,-9.15,-9.11,0,*51
1486001137.84,14281,7.19,72992.8,-8.13,-9.15,-9.15,0,*54
1486001139.1,14282,7.19,72956.3,-8.13,-9.11,-9.15,0,*53
1486001140.29,14283,7.19,72948.3,-8.13,-9.23,-9.23,0,*56
1486001141.55,14284,7.19,72962.3,-8.13,-9.15,-9.15,0,*51
1486001142.78,14285,7.13,72940.3,-8.13,-9.15,-9.23,0,*55
1486001144.01,14286,7.19,72962.5,-8.15,-9.23,-9.27,0,*51
1486001145.29,14287,7.13,72974.5,-8.15,-9.15,-9.15,0,*54
1486001146.55,14288,7.19,72974.0,-8.13,-9.15,-9.11,0,*59
1486001147.81,14289,7.19,72968.5,-8.13,-9.15,-9.15,0,*5C
1486001149.07,14290,7.19,72976.0,-8.15,-9.01,-9.11,0,*53
1486001150.32,14291,7.19,72990.3,-8.13,-9.15,-9.11,0,*51
1486001151.58,14292,7.19,72974.5,-8.13,-9.15,-9.15,0,*56
1486001152.84,14293,7.19,72962.3,-8.13,-9.15,-9.15,0,*57
1486001154.03,14294,7.19,72976.0,-8.13,-9.23,-9.23,0,*50
1486001155.23,14295,7.13,72978.5,-8.13,-9.23,-9.27,0,*55
1486001156.43,14296,7.13,72964.5,-8.13,-9.23,-9.23,0,*52
1486001157.63,14297,7.13,72968.0,-8.13,-9.23,-9.23,0,*53
1486001158.88,14298,7.13,72986.0,-8.13,-9.15,-9.15,0,*5C
1486001160.14,14299,7.13,72976.8,-8.13,-9.15,-9.15,0,*5D
1486001161.42,14300,7.19,72966.0,-8.15,-9.11,-9.11,0,*5A
1486001162.69,14301,7.19,72964.3,-8.15,-9.11,-9.01,0,*5A
1486001163.89,14302,7.13,72966.0,-8.13,-9.01,-9.01,0,*5E
1486001165.15,14303,7.13,72964.0,-8.13,-9.15,-9.11,0,*5B
1486001166.41,14304,7.19,72990.0,-8.13,-9.11,-9.11,0,*58
1486001167.64,14305,7.13,72966.8,-8.13,-9.01,-9.11,0,*58
1486001168.92,14306,7.19,72932.5,-8.15,-9.15,-9.15,0,*5C
1486001170.12,14307,7.19,72934.8,-8.13,-9.23,-9.23,0,*5B
1486001171.35,14308,7.13,72900.0,-8.13,-9.15,-9.23,0,*51
1486001172.58,14309,7.13,72904.5,-8.13,-9.23,-9.11,0,*54
1486001173.83,14310,7.13,72910.5,-8.13,-9.15,-9.15,0,*5D
1486001175.06,14311,7.13,72922.3,-8.13,-9.23,-9.15,0,*59
1486001176.29,14312,7.13,72924.5,-8.13,-9.11,-9.01,0,*5E
1486001177.54,14313,7.13,72928.8,-8.13,-9.11,-9.11,0,*5E
1486001178.78,14314,7.13,72928.0,-8.13,-9.01,-9.11,0,*58
1486001179.99,14315,7.13,72938.0,-8.13,-9.01,-9.01,0,*58
1486001181.2,14316,7.13,72932.3,-8.13,-9.01,-9.01,0,*5B
1486001182.45,14317,7.13,72942.8,-8.13,-9.11,-9.11,0,*5A
1486001183.68,14318,7.13,72950.8,-8.11,-8.97,-9.05,0,*5D
1486001184.91,14319,7.13,72952.5,-8.11,-9.05,-9.05,0,*56
1486001186.16,14320,7.13,72958.0,-8.11,-9.11,-9.19,0,*54
1486001187.39,14321,7.13,72954.5,-8.07,-9.05,-9.05,0,*5A
1486001188.64,14322,7.19,72942.8,-8.11,-9.11,-9.19,0,*56
1486001189.92,14323,7.19,72944.5,-8.11,-9.11,-9.11,0,*5F
1486001191.15,14324,7.19,72944.5,-8.11,-9.19,-9.19,0,*58
1486001192.43,14325,7.13,72950.0,-8.11,-9.11,-9.11,0,*59
1486001193.68,14326,7.13,72964.0,-8.13,-9.15,-9.15,0,*58
1486001194.91,14327,7.19,72968.0,-8.13,-9.23,-9.15,0,*5C
1486001196.16,14328,7.13,72956.3,-8.13,-9.15,-9.15,0,*56
1486001197.38,14329,7.19,72950.5,-8.13,-9.23,-9.15,0,*52
1486001198.67,14330,7.19,72954.8,-8.11,-9.11,-9.11,0,*5D
1486001199.89,14331,7.13,72954.5,-8.11,-9.23,-9.19,0,*55
1486001201.11,14332,7.13,72950.0,-8.11,-9.19,-9.19,0,*5F
1486001202.34,14333,7.13,72948.5,-8.11,-9.19,-9.19,0,*5E
1486001203.59,14334,7.19,72958.3,-8.07,-9.05,-9.15,0,*5F
1486001204.87,14335,7.13,72958.0,-8.11,-9.11,-9.11,0,*58
1486001206.1,14336,7.19,72962.5,-8.11,-9.19,-9.19,0,*5B
1486001207.35,14337,7.13,72950.3,-8.11,-9.11,-9.19,0,*52
1486001208.6,14338,7.13,72936.3,-8.11,-9.19,-9.11,0,*5D
1486001209.86,14339,7.19,72922.0,-8.11,-9.11,-8.97,0,*5B
1486001211.08,14340,7.13,72914.3,-8.11,-8.97,-8.97,0,*5A
1486001212.36,14341,7.19,72924.8,-8.11,-9.11,-9.11,0,*5B
1486001213.62,14342,7.13,72924.5,-8.11,-9.19,-9.11,0,*50
1486001214.9,14343,7.13,72922.3,-8.07,-9.15,-9.15,0,*5E
1486001216.15,14344,7.13,72932.5,-8.11,-9.19,-9.11,0,*56
1486001217.41,14345,7.13,72930.0,-8.13,-9.11,-9.11,0,*5D
1486001218.66,14346,7.13,72926.8,-8.11,-9.11,-9.05,0,*59
1486001219.89,14347,7.19,72932.5,-8.11,-9.05,-9.05,0,*5D
1486001221.12,14348,7.13,72936.0,-8.11,-9.05,-9.05,0,*52
1486001222.34,14349,7.13,72936.8,-8.11,-8.97,-8.93,0,*57
1486001223.57,14350,7.13,72938.0,-8.11,-8.97,-8.97,0,*5B
1486001224.79,14351,7.13,72948.3,-8.11,-8.97,-8.97,0,*5A
1486001226.02,14352,7.13,72950.0,-8.11,-8.97,-8.97,0,*59
1486001227.24,14353,7.19,72952.5,-8.11,-8.93,-8.97,0,*5C
1486001228.48,14354,7.13,72952.0,-8.07,-8.89,-8.93,0,*53
1486001229.7,14355,7.13,72956.8,-8.11,-9.05,-8.97,0,*54
1486001230.93,14356,7.19,72960.3,-8.11,-8.97,-8.97,0,*5D
1486001232.15,14357,7.19,72958.5,-8.11,-8.97,-9.05,0,*56
1486001233.38,14358,7.13,72960.8,-8.11,-9.23,-9.05,0,*57
1486001234.65,14359,7.19,72960.8,-8.11,-9.45,-9.49,0,*5E
1486001235.88,14360,7.13,72954.0,-8.07,-9.19,-9.19,0,*5F
1486001237.13,14361,7.13,72952.3,-8.07,-9.15,-9.19,0,*52
1486001238.42,14362,7.13,72948.8,-8.07,-9.15,-9.15,0,*5D
1486001239.64,14363,7.13,72950.5,-8.11,-9.19,-9.19,0,*5B
1486001240.86,14364,7.13,72948.8,-8.11,-9.19,-9.19,0,*5C
1486001242.09,14365,7.13,72962.0,-8.07,-9.19,-9.19,0,*5A
1486001243.35,14366,7.13,72974.8,-8.07,-9.15,-9.19,0,*55
1486001244.57,14367,7.13,72978.5,-8.11,-9.19,-9.23,0,*56
1486001245.79,14368,7.13,72976.3,-8.11,-9.31,-9.23,0,*53
1486001247.02,14369,7.19,72966.0,-8.11,-9.23,-9.23,0,*51
1486001248.24,14370,7.19,72966.0,-8.11,-9.23,-9.31,0,*5A
1486001249.46,14371,7.13,72954.8,-8.11,-9.31,-9.31,0,*58
1486001250.68,14372,7.13,72954.5,-8.11,-9.23,-9.31,0,*58
1486001251.93,14373,7.13,72954.8,-8.07,-9.27,-9.41,0,*5D
1486001253.2,14374,7.13,72962.8,-8.11,-9.49,-9.45,0,*51
1486001254.44,14375,7.19,72954.8,-8.11,-10.05,-10.01,0,*58
1486001255.66,14376,7.13,72962.5,-8.11,-9.93,-9.93,0,*5F
1486001256.86,14377,7.13,72966.3,-8.13,-9.79,-9.93,0,*58
1486001258.08,14378,7.13,72956.5,-8.15,-9.89,-9.89,0,*55
1486001259.31,14379,7.13,72958.0,-8.15,-10.09,-10.09,0,*54
1486001260.53,14380,7.13,72976.0,-8.13,-10.23,-10.19,0,*5D
1486001261.74,14381,7.13,72972.5,-8.17,-10.15,-10.23,0,*54
1486001262.93,14382,7.13,72968.5,-8.17,-9.97,-9.97,0,*52
1486001264.17,14383,7.13,72966.3,-8.19,-10.01,-10.01,0,*5D
1486001265.37,14384,7.13,72964.3,-8.17,-10.01,-9.97,0,*63
1486001266.58,14385,7.13,72964.3,-8.19,-9.97,-9.97,0,*5B
1486001267.82,14386,7.13,72972.0,-8.19,-10.01,-10.01,0,*58
1486001269.09,14387,7.13,72958.8,-8.19,-9.83,-9.83,0,*59
1486001270.35,14388,7.13,72956.0,-8.19,-9.83,-9.83,0,*56
1486001271.56,14389,7.13,72952.0,-8.17,-9.71,-9.79,0,*51
1486001272.78,14390,7.13,72966.8,-8.19,-9.71,-9.79,0,*57
1486001274.01,14391,7.13,72960.5,-8.19,-9.79,-9.79,0,*5E
1486001275.23,14392,7.13,72958.5,-8.19,-9.79,-9.79,0,*5D
1486001276.48,14393,7.13,72948.3,-8.23,-9.83,-9.71,0,*58
1486001277.67,14394,7.13,72946.5,-8.21,-9.89,-9.97,0,*5F
1486001278.87,14395,7.13,72948.3,-8.21,-10.01,-9.97,0,*66
1486001280.08,14396,7.13,72944.5,-8.21,-10.45,-10.45,0,*52
1486001281.32,14397,7.13,72950.0,-8.23,-10.31,-10.31,0,*51
1486001282.55,14398,7.13,72950.5,-8.23,-10.05,-10.05,0,*5E
1486001283.78,14399,7.13,72956.5,-8.23,-10.01,-9.97,0,*68
1486001284.98,14400,7.13,72958.8,-8.25,-10.05,-10.09,0,*52
1486001286.21,14401,7.13,72958.5,-8.27,-10.19,-10.09,0,*5C
1486001287.45,14402,7.13,72962.0,-8.27,-10.45,-10.35,0,*59
1486001288.65,14403,7.13,72958.0,-8.25,-10.45,-10.49,0,*51
1486001289.94,14404,7.13,72958.8,-8.27,-10.63,-10.71,0,*5B
1486001291.23,14405,7.13,72952.5,-8.27,-10.63,-10.75,0,*5E
1486001292.44,14406,7.13,72956.8,-8.33,-10.93,-11.11,0,*54
1486001293.65,14407,7.13,72958.3,-8.29,-10.93,-11.11,0,*5E
1486001294.91,14408,7.13,72962.8,-8.33,-10.79,-11.07,0,*59
1486001296.14,14409,7.13,72966.8,-8.33,-10.53,-10.79,0,*58
1486001297.4,14410,7.13,72970.3,-8.35,-10.57,-10.71,0,*5A
1486001298.64,14411,7.13,72958.8,-8.35,-10.27,-10.31,0,*58
1486001299.86,14412,7.13,72954.8,-8.35,-9.89,-9.97,0,*53
1486001301.09,14413,7.13,72948.5,-8.35,-9.71,-9.75,0,*59
1486001302.33,14414,7.13,72946.3,-8.35,-9.61,-9.71,0,*5B
1486001303.6,14415,7.13,72932.8,-8.35,-9.61,-9.61,0,*5B
1486001304.87,14416,7.13,72930.8,-8.35,-9.49,-9.45,0,*54
1486001306.16,14417,7.13,72930.8,-8.35,-9.37,-9.37,0,*59
1486001307.41,14418,7.13,72928.8,-8.33,-9.41,-9.45,0,*54
1486001308.66,14419,7.13,72928.3,-8.33,-9.41,-9.53,0,*52
1486001309.88,14420,7.13,72932.0,-8.29,-9.57,-9.79,0,*5C
1486001311.08,14421,7.13,72936.5,-8.33,-9.79,-9.71,0,*52
1486001312.3,14422,7.13,72946.8,-8.33,-9.83,-9.93,0,*58
1486001313.51,14423,7.13,72942.3,-8.33,-9.71,-9.71,0,*58
1486001314.75,14424,7.13,72944.3,-8.33,-9.53,-9.53,0,*5F
1486001315.99,14425,7.13,72944.5,-8.33,-9.57,-9.57,0,*5E
1486001317.19,14426,7.13,72940.5,-8.33,-9.93,-9.93,0,*5D
1486001318.4,14427,7.13,72944.3,-8.35,-9.89,-9.89,0,*5A